Christchurch Automated, New Zealand

2:13 AM NZST on August 26, 2016 (GMT +1200)
Christchurch International

Weather History for NZCH - January, 2014

Change the Weather History Date:

Sunday, January 5, 2014

  Actual Average Record
Temperature  
Mean Temperature 65 °F -  
Max Temperature 77 °F 67 °F 86 °F (2015)
Min Temperature 53 °F 51 °F 39 °F (2006)
Growing Degree Days 15 (Base 50)    
Moisture  
Dew Point 46 °F    
Average Humidity 51    
Maximum Humidity 82    
Minimum Humidity 24    
Precipitation  
Precipitation 0.00 in - - ()
Sea Level Pressure  
Sea Level Pressure 29.26 in    
Wind  
Wind Speed 9 mph ()    
Max Wind Speed 31 mph    
Max Gust Speed 45 mph    
Visibility 6.2 miles    
Events Rain    
Averages and records for this station are not official NWS values.
T = Trace of Precipitation, MM = Missing Value Source: Averaged Metar Reports

Daily Weather History Graph

Daily Weather History Graph

Search for Another Location

Airport or City:

Trip Planner

Search our weather history database for the weather conditions in past years. The results will help you decide how hot, cold, wet, or windy it might be!

Date:

Astronomy

Jan. 05, 2014 Rise Set
Actual Time 5:56 AM NZDT 9:13 PM NZDT
Civil Twilight 5:20 AM NZDT 9:48 PM NZDT
Nautical Twilight 4:34 AM NZDT 10:34 PM NZDT
Astronomical Twilight 3:38 AM NZDT 11:30 PM NZDT
Moon 10:20 AM NZDT (1/5) 11:25 PM NZDT (1/5)
Length of Visible Light 16h 28m
Length of Day
15h 17m
Waxing Crescent, 17% of the Moon is Illuminated
Jan 5
Waxing Crescent
Jan 8
First Quarter
Jan 16
Full
Jan 24
Last Quarter
Jan 31
New

Hourly Weather History & Observations

Time (NZDT) Temp. Dew Point Humidity Pressure Visibility Wind Dir Wind Speed Gust Speed Precip Events Conditions
12:00 AM 62.6 °F 42.8 °F 48% 29.33 in 6.2 mi North 9.2 mph - N/A   Unknown
12:30 AM 60.8 °F 42.8 °F 52% 29.33 in 6.2 mi North 6.9 mph - N/A   Unknown
1:00 AM 59.0 °F 44.6 °F 59% 29.30 in 6.2 mi North 4.6 mph - N/A   Unknown
1:30 AM 55.4 °F 44.6 °F 67% 29.30 in 6.2 mi NE 5.8 mph - N/A   Scattered Clouds
2:00 AM 55.4 °F 44.6 °F 67% 29.27 in 6.2 mi ENE 8.1 mph - N/A   Unknown
2:30 AM 57.2 °F 46.4 °F 67% 29.24 in 6.2 mi NE 8.1 mph - N/A   Partly Cloudy
3:00 AM 57.2 °F 46.4 °F 67% 29.24 in 6.2 mi ENE 4.6 mph - N/A   Unknown
3:30 AM 53.6 °F 48.2 °F 82% 29.21 in 6.2 mi ESE 4.6 mph - N/A   Unknown
4:00 AM 55.4 °F 50.0 °F 82% 29.21 in 6.2 mi NE 3.5 mph - N/A   Unknown
4:30 AM 55.4 °F 50.0 °F 82% 29.21 in 6.2 mi ENE 3.5 mph - N/A   Unknown
5:00 AM 55.4 °F 50.0 °F 82% 29.21 in 6.2 mi East 1.2 mph - N/A   Unknown
5:30 AM 55.4 °F 50.0 °F 82% 29.18 in 6.2 mi ENE 6.9 mph - N/A   Unknown
6:00 AM 60.8 °F 51.8 °F 72% 29.18 in 6.2 mi East 8.1 mph - N/A   Unknown
6:30 AM 59.0 °F 50.0 °F 72% 29.18 in 6.2 mi ENE 2.3 mph - N/A   Unknown
7:00 AM 60.8 °F 51.8 °F 72% 29.18 in 6.2 mi ENE 8.1 mph - N/A   Unknown
7:30 AM 64.4 °F 51.8 °F 64% 29.18 in 6.2 mi ESE 5.8 mph - N/A   Unknown
8:00 AM 68.0 °F 53.6 °F 60% 29.15 in 6.2 mi NE 6.9 mph - N/A   Unknown
8:30 AM 71.6 °F 53.6 °F 53% 29.15 in 6.2 mi NNE 6.9 mph - N/A   Unknown
9:00 AM 73.4 °F 55.4 °F 53% 29.15 in 6.2 mi ENE 5.8 mph - N/A   Unknown
9:30 AM 73.4 °F 53.6 °F 50% 29.15 in 6.2 mi SE 2.3 mph - N/A   Partly Cloudy
10:00 AM 75.2 °F 51.8 °F 44% 29.18 in 6.2 mi WNW 5.8 mph - N/A   Mostly Cloudy
10:30 AM 66.2 °F 53.6 °F 64% 29.21 in 6.2 mi NW 23.0 mph 39.1 mph N/A Rain Light Rain Showers
11:00 AM 66.2 °F 55.4 °F 68% 29.21 in 6.2 mi SW 17.3 mph - N/A Rain Light Rain Showers
11:30 AM 66.2 °F 55.4 °F 68% 29.21 in 6.2 mi SW 11.5 mph - N/A   Mostly Cloudy
12:00 PM 69.8 °F 55.4 °F 60% 29.18 in 6.2 mi South 11.5 mph - N/A   Partly Cloudy
12:30 PM 71.6 °F 55.4 °F 57% 29.18 in 6.2 mi SSW 6.9 mph - N/A   Unknown
1:00 PM 71.6 °F 53.6 °F 53% 29.18 in 6.2 mi SW 6.9 mph - N/A   Unknown
1:30 PM 75.2 °F 53.6 °F 47% 29.18 in 6.2 mi SW 11.5 mph 23.0 mph N/A   Unknown
2:00 PM 73.4 °F 53.6 °F 50% 29.18 in 6.2 mi SSW 12.7 mph 27.6 mph N/A   Unknown
2:30 PM 75.2 °F 46.4 °F 36% 29.21 in 6.2 mi SW 12.7 mph - N/A   Unknown
3:00 PM 77.0 °F 37.4 °F 24% 29.24 in 6.2 mi West 26.5 mph 41.4 mph N/A   Unknown
3:30 PM 75.2 °F 35.6 °F 24% 29.24 in 6.2 mi West 31.1 mph 44.9 mph N/A   Unknown
4:00 PM 75.2 °F 35.6 °F 24% 29.27 in 6.2 mi West 27.6 mph 40.3 mph N/A   Unknown
4:30 PM 75.2 °F 37.4 °F 25% 29.27 in 6.2 mi West 27.6 mph - N/A   Unknown
5:00 PM 75.2 °F 39.2 °F 27% 29.27 in 6.2 mi West 23.0 mph - N/A   Unknown
5:30 PM 75.2 °F 39.2 °F 27% 29.27 in 6.2 mi West 19.6 mph 33.4 mph N/A   Unknown
6:00 PM 75.2 °F 39.2 °F 27% 29.30 in 6.2 mi WNW 19.6 mph - N/A   Unknown
6:30 PM 73.4 °F 42.8 °F 33% 29.30 in 6.2 mi WNW 18.4 mph - N/A   Unknown
7:00 PM 73.4 °F 39.2 °F 29% 29.30 in 6.2 mi WNW 15.0 mph - N/A   Unknown
7:30 PM 71.6 °F 41.0 °F 33% 29.33 in 6.2 mi NW 13.8 mph - N/A   Unknown
8:00 PM 71.6 °F 41.0 °F 33% 29.33 in 6.2 mi WNW 11.5 mph - N/A   Unknown
8:30 PM 69.8 °F 41.0 °F 35% 29.36 in 6.2 mi WNW 15.0 mph - N/A   Unknown
9:00 PM 66.2 °F 41.0 °F 40% 29.39 in 6.2 mi WNW 16.1 mph - N/A   Unknown
9:30 PM 64.4 °F 41.0 °F 42% 29.39 in 6.2 mi WNW 16.1 mph - N/A   Unknown
10:00 PM 64.4 °F 41.0 °F 42% 29.42 in 6.2 mi NW 17.3 mph - N/A   Unknown
10:30 PM 62.6 °F 39.2 °F 42% 29.42 in 6.2 mi NW 17.3 mph - N/A   Unknown
11:00 PM 62.6 °F 39.2 °F 42% 29.44 in 6.2 mi WNW 16.1 mph - N/A   Unknown
11:30 PM 62.6 °F 37.4 °F 39% 29.47 in 6.2 mi WNW 13.8 mph - N/A   Unknown